Regional Weather Roundup
Issued by NWS Huntsville, AL

Home | Current Version | Previous Version | Text Only | Print | Product List | Glossary On
Versions: 1 2 3 4 5 6 7 8 9 10 11 12 13 14 15 16 17 18 19 20 21 22 23 24 25 26 27 28 29 30 31 32 33 34 35 36 37 38 39 40 41 42 43 44 45 46 47 48 49 50
000
ASUS44 KHUN 102210
RWRHUN

WEATHER ROUNDUP FOR THE TENNESSEE VALLEY
NATIONAL WEATHER SERVICE HUNTSVILLE AL
500 PM CDT THU JUL 10 2014

ALZ001>004-102300-
NORTHWEST ALABAMA

CITY           SKY/WX    TMP DP  RH WIND       PRES   REMARKS
SHOALS AIRPORT MOSUNNY   89  63  41 N5        30.05F HX  90
SHOALS TVA RES   N/A     86 N/A N/A MISG        N/A
$$

ALZ005>007-016-102300-
NORTH CENTRAL ALABAMA

CITY           SKY/WX    TMP DP  RH WIND       PRES   REMARKS
DECATUR AP     SUNNY     85  68  56 N8        30.04F
HUNTSVILLE AP  MOSUNNY   88  67  49 N8        30.03F HX  91
HUN NWS/UAH      N/A     88  60  39 N5          N/A
MERIDIANVILLE  SUNNY     88  54  31 N7        30.04F
VINEMONT AP    FAIR      85  69  58 N5        30.07F
$$

ALZ008>010-102300-
NORTHEAST ALABAMA

CITY           SKY/WX    TMP DP  RH WIND       PRES   REMARKS
ALBERTVILLE    MOSUNNY   84  73  70 NW3       30.04S HX  91
FORT PAYNE     SUNNY     86  59  39 NW6       30.03F
SCOTTSBORO AP  SUNNY     86  70  58 N7        30.04S HX  90
SCOTTSBORO HCN   N/A     86 N/A N/A MISG        N/A
VALLEY HEAD      N/A     84 N/A N/A MISG        N/A
$$

TNZ076-096-097-102300-
SOUTHEASTERN MIDDLE TENNESSEE

CITY           SKY/WX    TMP DP  RH WIND       PRES   REMARKS
FAYETTEVILLE   SUNNY     84  63  48 NE10      30.05F
TULLAHOMA      SUNNY     82  61  47 N5        30.07F
WINCHESTER     SUNNY     84  63  48 N9        30.06S
$$

...SURROUNDING SITES...

CITY           SKY/WX    TMP DP  RH WIND       PRES   REMARKS
ATLANTA        PTSUNNY   84  69  60 SW9       30.03F
ANNISTON       PTSUNNY   88  68  51 SW6       30.02F HX  91
BIRMINGHAM     CLOUDY    88  64  44 NW8       30.04F
CHATTANOOGA    PTSUNNY   83  66  56 NE3       30.04S
CORINTH        FAIR      86  64  48 NE7       30.04F
DALTON         MOSUNNY   84  68  58 CALM      30.03S
GADSDEN        PTSUNNY   86  70  58 S6        30.01F HX  90
GOLDEN TRNGL   MOSUNNY   91  70  49 CALM      30.03F HX  97
HALEYVILLE     FAIR      87  68  53 N7        30.08F HX  90
JACKSON TN     PTSUNNY   85  62  46 CALM      30.05F
LEWISBURG      FAIR      88  61  40 N5        30.05F
MEMPHIS        MOSUNNY   86  62  44 N8        30.05S
MURFREESBORO   FAIR      88  58  36 NE9       30.04F
NASHVILLE      PTSUNNY   88  59  37 E7        30.05F
ROME           MOSUNNY   89  68  49 N5        30.01F HX  93
SAVANNAH       MOSUNNY   87  64  46 NE5       30.05F
TUPELO         MOSUNNY   87  66  49 E5        30.02F
TUSCALOOSA     PTSUNNY   88  69  53 W5        30.02F HX  92
$$

...GULF COAST WEATHER...

CITY           SKY/WX    TMP DP  RH WIND       PRES   REMARKS
GULFPORT       PTSUNNY   90  73  57 S6        30.04F HX  98
PASCAGOULA     CLOUDY    79  73  82 CALM      30.06F
MOBILE         CLOUDY    77  73  87 CALM      30.07F
GULF SHORES    MOCLDY    74  72  93 CALM      30.05F
PENSACOLA      LGT RAIN  74  72  93 E5        30.04F
DESTIN         CLOUDY    80  69  69 NW12G22   30.07R
PANAMA CITY    PTSUNNY   82  72  69 SW10      30.05F
APPALACHICOLA  CLOUDY    84  72  67 SW8       30.03F
$$



USA.gov is the U.S. government's official web portal to all federal, state and local government web resources and services.